Location: Arbon
(43.0005°N, 0.7472°E)
Time: 01:43:46
(UTC+00:00)

GEOS 3 Rocket - Pass Details

Date: 07 August 2020
Orbit: 770 x 849 km, 115.0° (Epoch: 19 September)

Event Time Altitude Azimuth Distance (km) Brightness Sun altitude
Rises 00:35:56 0° 38° (NE) 3,417 7.7 -30.2°
Reaches altitude 10° 00:38:17 10° 41° (NE) 2,480 6.8 -30.1°
Enters shadow 00:42:45 58° 71° (ENE) 989 4.0 -30.0°
